Location: Tierra del Sol
(32.6128°N, 116.3319°W)
Time: 10:39:07
(UTC-08:00)

N. Korean satellite - Pass Details

Date: 07 October 2017
Orbit: 461 x 513 km, 97.2° (Epoch: 17 December)

Event Time Altitude Azimuth Distance (km) Brightness Sun altitude
Rises 19:06:29 0° 176° (S) 2,584 10.2 -10.2°
Reaches altitude 10° 19:08:36 10° 180° (S) 1,696 9.3 -10.7°
Maximum altitude 19:12:12 57° 260° (W) 584 7.3 -11.4°
Drops below altitude 10° 19:15:45 10° 340° (NNW) 1,678 9.6 -12.2°
Sets 19:17:50 0° 344° (NNW) 2,553 10.5 -12.6°
